Stations météo

réclame
Mon MeteoGroup
Valladolid, Espagne (8141): Température de l'air & dewpoint: 29.07.2020 18:00:00 - 04.08.2020 18:00:00 (CEST)Valladolid, Espagne (8141): Vitesse du vent: 29.07.2020 18:00:00 - 04.08.2020 18:00:00 (CEST)Valladolid, Espagne (8141): Direction du vent: 29.07.2020 18:00:00 - 04.08.2020 18:00:00 (CEST)Valladolid, Espagne (8141): reduced air pressure: 29.07.2020 18:00:00 - 04.08.2020 18:00:00 (CEST)Valladolid, Espagne (8141): visibility: 29.07.2020 18:00:00 - 04.08.2020 18:00:00 (CEST)Valladolid, Espagne (8141): Quantités de précipitations: 29.07.2020 18:00:00 - 04.08.2020 18:00:00 (CEST)
Date & Time tt [°C] td [°C] ff [km/h] ff [knt] dd ppp [hPa] vv [km] rr [mm]
04.08.2020 18:00:00 29,2 8,3 9 5 E 1011,0 20 0,0
04.08.2020 17:00:00 29,1 7,6 4 2 NNE 1011,4 30 -
04.08.2020 16:00:00 28,7 8,9 5 3 N 1012,2 20 0,0
04.08.2020 15:00:00 27,6 10,8 8 4 NNE 1013,0 20 0,0
04.08.2020 14:00:00 26,6 10,7 8 4 NNW 1013,9 30 -
04.08.2020 13:00:00 25,5 10,5 8 4 N 1014,7 20 0,0
04.08.2020 12:00:00 23,8 10,1 5 3 ENE 1015,2 20 0,0
04.08.2020 11:00:00 21,1 9,7 5 3 NNE 1016,4 30 -
04.08.2020 10:00:00 18,3 9,1 5 3 NNE 1017,6 20 0,0
04.08.2020 09:00:00 16,3 8,3 4 2 NNE 1017,9 20 0,0
04.08.2020 08:00:00 14,4 7,2 4 2 N 1018,1 20 -
04.08.2020 07:00:00 14,2 7,7 4 2 NNW 1018,1 20 0,0
04.08.2020 06:00:00 14,7 8,2 4 2 NNW 1017,9 20 0,0
04.08.2020 05:00:00 16,1 6,5 5 3 NE 1018,0 20 -
04.08.2020 04:00:00 16,7 8,6 8 4 NE 1017,6 20 0,0
04.08.2020 03:00:00 17,5 9,4 8 4 NE 1017,5 20 0,0
04.08.2020 02:00:00 18,4 10,2 11 6 ENE 1017,1 20 -
04.08.2020 01:00:00 19,5 10,5 9 5 ENE 1016,3 20 0,0
04.08.2020 00:00:00 21,0 10,2 11 6 ENE 1015,3 20 0,0
03.08.2020 23:00:00 23,1 9,1 13 7 ENE 1014,2 25 -
03.08.2020 22:00:00 25,0 6,7 8 4 E 1012,9 20 0,0
03.08.2020 21:00:00 26,0 6,6 2 1 N 1012,4 20 0,0
03.08.2020 20:00:00 27,3 6,7 5 3 NNW 1012,0 30 -
03.08.2020 19:00:00 28,4 7,0 8 4 NW 1011,7 20 0,0
03.08.2020 18:00:00 28,4 8,1 5 3 NNE 1011,8 20 0,0
03.08.2020 17:00:00 28,5 7,7 8 4 N 1012,2 30 -
03.08.2020 16:00:00 28,1 7,3 5 3 NNE 1013,0 20 0,0
03.08.2020 15:00:00 26,6 7,1 5 3 NNE 1014,1 20 0,0
03.08.2020 14:00:00 25,0 6,7 5 3 ENE 1015,1 30 -
03.08.2020 13:00:00 23,3 5,7 8 4 E 1016,2 20 0,0
03.08.2020 12:00:00 22,3 6,9 8 4 NE 1017,0 20 0,0
03.08.2020 11:00:00 19,6 8,9 5 3 N 1018,0 30 -
03.08.2020 10:00:00 17,3 9,9 5 3 N 1018,8 20 0,0
03.08.2020 09:00:00 15,8 10,8 8 4 NNE 1018,9 20 0,0
03.08.2020 08:00:00 14,3 10,7 4 2 N 1018,9 20 -
03.08.2020 07:00:00 14,3 10,5 4 2 NNW 1018,6 20 0,0
03.08.2020 06:00:00 15,1 10,7 4 2 NNE 1018,2 20 0,0
03.08.2020 05:00:00 15,8 10,3 5 3 NNE 1017,9 20 -
03.08.2020 04:00:00 16,5 9,9 5 3 N 1018,0 20 0,0
03.08.2020 03:00:00 17,2 9,6 8 4 ENE 1018,0 20 0,0
03.08.2020 02:00:00 17,7 9,8 9 5 NE 1018,1 20 -
03.08.2020 01:00:00 18,2 9,5 9 5 ENE 1018,0 20 0,0
03.08.2020 00:00:00 18,9 10,2 13 7 ENE 1017,7 20 0,0
02.08.2020 23:00:00 20,2 10,6 13 7 ENE 1017,0 25 -
02.08.2020 22:00:00 22,1 10,3 16 9 ENE 1015,7 20 0,0
02.08.2020 21:00:00 24,0 9,6 5 3 NNE 1014,8 20 0,0
02.08.2020 20:00:00 26,2 8,7 5 3 NNE 1014,0 30 -
02.08.2020 19:00:00 26,1 9,4 8 4 N 1014,0 20 0,0
02.08.2020 18:00:00 27,5 9,8 8 4 N 1013,8 20 0,0
02.08.2020 17:00:00 27,7 9,5 8 4 N 1013,9 30 -
02.08.2020 16:00:00 28,5 12,0 8 4 NE 1013,9 20 0,0
02.08.2020 15:00:00 27,7 12,1 8 4 ENE 1014,5 20 0,0
02.08.2020 14:00:00 26,1 13,2 9 5 ENE 1015,4 30 -
02.08.2020 13:00:00 25,0 13,2 8 4 N 1016,5 20 0,0
02.08.2020 12:00:00 24,0 13,5 5 3 NNE 1016,8 20 0,0
02.08.2020 11:00:00 21,4 13,8 8 4 N 1017,5 30 -
02.08.2020 10:00:00 19,4 13,8 5 3 NNE 1017,9 20 0,0
02.08.2020 09:00:00 17,9 13,4 5 3 NNE 1018,3 20 0,0
02.08.2020 08:00:00 16,3 13,4 4 2 N 1018,7 25 -
02.08.2020 07:00:00 16,3 13,6 4 2 N 1018,5 20 0,0
02.08.2020 06:00:00 16,5 13,6 5 3 N 1018,3 20 0,0
02.08.2020 05:00:00 16,9 13,8 5 3 N 1018,1 20 -
02.08.2020 04:00:00 17,2 13,7 5 3 N 1017,9 20 0,0
02.08.2020 03:00:00 17,7 13,6 8 4 N 1017,9 20 0,0
02.08.2020 02:00:00 18,4 13,7 4 2 N 1018,0 20 -
02.08.2020 01:00:00 19,1 13,7 8 4 N 1018,0 20 0,0
02.08.2020 00:00:00 20,3 14,0 8 4 N 1017,6 20 0,0
01.08.2020 23:00:00 22,8 14,1 8 4 N 1016,4 25 -
01.08.2020 22:00:00 26,6 13,3 9 5 NE 1014,2 20 0,0
01.08.2020 21:00:00 30,6 7,7 9 5 W 1012,6 20 0,0
01.08.2020 20:00:00 32,0 8,9 5 3 WNW 1012,3 30 -
01.08.2020 19:00:00 33,9 7,8 8 4 W 1012,0 20 0,0
01.08.2020 18:00:00 33,9 9,2 8 4 WNW 1012,4 20 0,0
01.08.2020 17:00:00 34,2 8,8 8 4 NW 1012,5 30 -
01.08.2020 16:00:00 33,9 8,5 11 6 NW 1012,9 20 0,0
01.08.2020 15:00:00 32,8 8,3 9 5 WNW 1013,6 20 0,0
01.08.2020 14:00:00 32,1 10,2 5 3 W 1014,1 25 -
01.08.2020 13:00:00 29,0 12,8 5 3 WNW 1015,5 20 0,0
01.08.2020 12:00:00 26,3 15,4 4 2 N 1016,4 20 0,0
01.08.2020 11:00:00 23,5 15,5 5 3 SSE 1017,0 18 -
01.08.2020 10:00:00 21,2 15,3 4 2 ESE 1017,5 20 0,0
01.08.2020 09:00:00 19,6 14,6 8 4 E 1018,0 20 0,0
01.08.2020 08:00:00 17,6 14,3 4 2 NNW 1017,9 15 -
01.08.2020 07:00:00 17,5 13,0 4 2 NNW 1017,7 20 0,0
01.08.2020 06:00:00 18,8 13,4 5 3 NNW 1017,1 20 0,0
01.08.2020 05:00:00 19,5 12,5 5 3 NNW 1016,5 20 -
01.08.2020 04:00:00 20,8 10,9 5 3 N 1015,7 20 0,0
01.08.2020 03:00:00 22,2 8,3 5 3 NNW 1015,2 20 0,0
01.08.2020 02:00:00 24,7 5,5 8 4 NW 1014,6 25 -
01.08.2020 01:00:00 25,7 3,0 5 3 W 1014,5 20 0,0
01.08.2020 00:00:00 26,7 1,9 5 3 W 1013,8 20 0,0
31.07.2020 23:00:00 27,6 1,1 8 4 W 1013,0 25 -
31.07.2020 22:00:00 29,8 2,1 5 3 W 1011,8 20 0,0
31.07.2020 21:00:00 33,2 2,1 8 4 W 1010,5 20 0,0
31.07.2020 20:00:00 35,8 5,1 8 4 W 1009,5 30 -
31.07.2020 19:00:00 36,9 2,8 11 6 W 1009,4 20 0,0
31.07.2020 18:00:00 36,7 1,4 15 8 W 1009,8 20 0,0
31.07.2020 17:00:00 37,4 2,0 9 5 W 1009,9 30 -
31.07.2020 16:00:00 36,2 4,5 8 4 SW 1010,6 20 0,0
31.07.2020 15:00:00 35,3 7,4 8 4 S 1010,8 20 0,0
31.07.2020 14:00:00 34,0 9,3 8 4 W 1011,5 30 -
31.07.2020 13:00:00 31,7 13,5 8 4 SSW 1012,3 20 0,0
31.07.2020 12:00:00 29,4 14,0 5 3 SW 1012,9 20 0,0
31.07.2020 11:00:00 26,5 14,3 4 2 SSE 1013,7 30 -
31.07.2020 10:00:00 23,8 13,9 4 2 SE 1014,1 20 0,0
31.07.2020 09:00:00 21,3 14,0 4 2 SE 1014,6 20 0,0
31.07.2020 08:00:00 19,3 13,9 2 1 E 1015,1 25 -
31.07.2020 07:00:00 19,3 13,7 2 1 NE 1014,6 20 0,0
31.07.2020 06:00:00 19,8 13,5 4 2 SSE 1014,1 20 0,0
31.07.2020 05:00:00 20,1 13,1 4 2 NW 1013,6 20 -
31.07.2020 04:00:00 21,4 13,8 5 3 WSW 1012,9 20 0,0
31.07.2020 03:00:00 22,2 13,8 5 3 W 1012,7 20 0,0
31.07.2020 02:00:00 24,0 14,1 2 1 NE 1012,3 20 -
31.07.2020 01:00:00 24,9 13,1 5 3 ENE 1012,3 20 0,0
31.07.2020 00:00:00 25,6 12,8 4 2 W 1012,2 20 0,0
30.07.2020 23:00:00 27,4 12,6 5 3 NE 1011,1 20 -
30.07.2020 22:00:00 27,7 11,3 4 2 NNE 1009,9 20 0,0
30.07.2020 21:00:00 30,7 11,6 5 3 NE 1008,3 20 0,0
30.07.2020 20:00:00 33,1 9,2 8 4 WNW 1006,7 30 -
30.07.2020 19:00:00 33,8 11,0 9 5 WNW 1006,3 18 0,0
30.07.2020 18:00:00 33,7 10,3 5 3 SSE 1006,8 20 0,0
30.07.2020 17:00:00 34,1 5,6 26 14 S 1007,8 20 -
30.07.2020 16:00:00 37,5 8,3 18 10 S 1006,0 20 0,0
30.07.2020 15:00:00 37,4 7,3 15 8 S 1006,4 20 0,0
30.07.2020 14:00:00 37,3 12,0 11 6 SSW 1006,7 30 -
30.07.2020 13:00:00 36,0 11,6 13 7 S 1007,6 20 0,0
30.07.2020 12:00:00 33,3 12,9 8 4 S 1008,9 20 0,0
30.07.2020 11:00:00 30,3 13,6 8 4 S 1009,9 25 -
30.07.2020 10:00:00 27,3 13,3 5 3 E 1011,0 20 0,0
30.07.2020 09:00:00 24,4 12,4 4 2 E 1011,7 20 0,0
30.07.2020 08:00:00 21,9 11,6 5 3 E 1012,2 20 -
30.07.2020 07:00:00 21,4 12,0 2 1 NNW 1012,0 20 0,0
30.07.2020 06:00:00 22,2 12,2 5 3 E 1011,4 20 0,0
30.07.2020 05:00:00 23,0 12,0 2 1 N 1011,1 20 -
30.07.2020 04:00:00 23,9 12,5 2 1 NNW 1011,0 20 0,0
30.07.2020 03:00:00 24,6 13,5 4 2 WNW 1010,7 20 0,0
30.07.2020 02:00:00 25,4 12,9 4 2 NW 1010,5 20 -
30.07.2020 01:00:00 27,0 12,6 2 1 N 1010,2 20 0,0
30.07.2020 00:00:00 28,1 12,4 4 2 NNE 1009,9 20 0,0
29.07.2020 23:00:00 29,9 11,4 5 3 NE 1009,5 25 -
29.07.2020 22:00:00 31,3 8,3 4 2 WNW 1008,4 20 0,0
29.07.2020 21:00:00 33,6 7,5 5 3 NNW 1007,6 20 0,0
29.07.2020 20:00:00 35,8 6,9 8 4 NW 1006,8 30 -
29.07.2020 19:00:00 36,7 6,8 4 2 E 1006,9 20 0,0
29.07.2020 18:00:00 36,8 6,9 5 3 E 1007,4 20 0,0

tt = Température de l'air
td = dewpoint
ff = Vitesse du vent
dd = Direction du vent
ppp = reduced air pressure
vv = visibility
rr = Quantités de précipitations

stations d'obs. à proximité